This is the latest recevied weather packets stored in our database for station/object JA6YCL-13. If no packets are shown the sender has not sent any weather packets the latest 10 day(s).
| Time | Temp. | Humidity | Pressure | Rain* | Wind** | Luminosity | Snow |
|---|---|---|---|---|---|---|---|
| 1777948338 | 21.11° C | 29% | 1019.9 hPa | 0 mm | - | - | - |
| 1777947505 | 21.11° C | 29% | 1020 hPa | 0 mm | - | - | - |
| 1777946700 | 20.56° C | 31% | 1020.2 hPa | 0 mm | - | - | - |
| 1777945870 | 20° C | 33% | 1020.5 hPa | 0 mm | - | - | - |
| 1777945028 | 19.44° C | 32% | 1020.7 hPa | 0 mm | - | - | - |
| 1777944163 | 19.44° C | 35% | 1020.7 hPa | 0 mm | - | - | - |
| 1777943382 | 19.44° C | 33% | 1020.7 hPa | 0 mm | - | - | - |
| 1777942630 | 18.89° C | 35% | 1020.7 hPa | 0 mm | - | - | - |
| 1777941843 | 18.89° C | 40% | 1020.8 hPa | 0 mm | - | - | - |
| 1777941078 | 18.33° C | 42% | 1020.9 hPa | 0 mm | - | - | - |
| 1777940288 | 17.78° C | 45% | 1020.9 hPa | 0 mm | - | - | - |
| 1777939485 | 17.22° C | 47% | 1021.1 hPa | 0 mm | - | - | - |
| 1777938743 | 17.78° C | 45% | 1021.2 hPa | 0 mm | - | - | - |
| 1777938003 | 16.67° C | 49% | 1021.3 hPa | 0 mm | - | - | - |
| 1777937268 | 15.56° C | 48% | 1021.2 hPa | 0 mm | - | - | - |
| 1777936398 | 14.44° C | 57% | 1021.2 hPa | 0 mm | - | - | - |
| 1777935498 | 13.89° C | 59% | 1021.4 hPa | 0 mm | - | - | - |
| 1777934748 | 13.33° C | 61% | 1021.5 hPa | 0 mm | - | - | - |
| 1777933891 | 12.78° C | 64% | 1021.3 hPa | 0 mm | - | - | - |
| 1777933024 | 11.67° C | 68% | 1021.3 hPa | 0 mm | - | - | - |
| 1777932261 | 10.56° C | 73% | 1021.3 hPa | 0 mm | - | - | - |
| 1777931438 | 10° C | 75% | 1021.3 hPa | 0 mm | - | - | - |
| 1777930683 | 9.44° C | 79% | 1021.4 hPa | 0 mm | - | - | - |
| 1777929948 | 8.89° C | 80% | 1021.3 hPa | 0 mm | - | - | - |
| 1777929066 | 8.89° C | 80% | 1021.1 hPa | 0 mm | - | - | - |
* Rain latest hour (hover to see other rain measurements)
** Current wind speed in m/s (hover to see current wind gust speed)